Regional Weather Roundup
Issued by NWS

Home | Current Version | Previous Version | Graphics & Text | Print | Product List | Glossary On
Versions: 1 2 3 4 5 6 7 8 9 10 11 12 13 14 15 16 17 18 19 20 21 22 23 24 25 26 27 28 29 30 31 32 33 34 35 36 37 38 39 40 41 42 43 44 45 46 47 48 49 50
000
ASUS43 KLMK 011410
RWRKY
KENTUCKY REGIONAL WEATHER ROUNDUP
NATIONAL WEATHER SERVICE LOUISVILLE KY
900 AM EST SUN MAR 01 2015

NOTE "FAIR" INDICATES FEW OR NO CLOUDS BELOW 12,000 FEET
WITH NO SIGNIFICANT WEATHER AND/OR OBSTRUCTIONS TO VISIBILITY.

KYZ001>023-026-027-061>063-070>075-011500-
WESTERN AND SOUTH CENTRAL KENTUCKY

CITY           SKY/WX    TMP DP  RH WIND       PRES   REMARKS
PADUCAH        CLOUDY    33  28  81 SE9       30.36S WCI  25
HENDERSON      CLOUDY    34  27  75 SE3       30.36S
OWENSBORO      LGT RAIN  33  30  89 S10       30.38R WCI  25
HOPKINSVILLE   DRIZZLE   35  30  80 E2        30.37R
BOWLING GREEN  CLOUDY    38  31  76 CALM      30.39R
GLASGOW        LGT RAIN  38  32  77 NE3       30.37F
$$

KYZ024-025-028>034-038-045-046-053-011500-
NORTH CENTRAL KENTUCKY

CITY           SKY/WX    TMP DP  RH WIND       PRES   REMARKS
LOUISVILLE/SDF FRZ RAIN  32  29  88 SE8       30.37F FOG     WCI  25
LOUISVILLE/LOU CLOUDY    32  28  85 SE3       30.37F
FORT KNOX      FRZ RAIN  31  29  90 E5        30.34F WCI  27
$$

KYZ035>037-039>044-047>052-055>060-089>105-011500-
NORTHEAST KENTUCKY

CITY           SKY/WX    TMP DP  RH WIND       PRES   REMARKS
LEXINGTON      LGT RAIN  34  31  88 S6        30.39R WCI  29
COVINGTON      LGT SNOW  30  25  81 SE6       30.36F WCI  24
FRANKFORT      FRZ RAIN  32  28  85 SE6       30.37S FOG     WCI  26
$$

KYZ054-064>069-076>088-106>120-011500-
SOUTHEAST KENTUCKY

CITY           SKY/WX    TMP DP  RH WIND       PRES   REMARKS
JACKSON        LGT RAIN  36  28  73 CALM      30.39R
LONDON         CLOUDY    39  26  59 CALM      30.40S
SOMERSET       CLOUDY    41  30  65 S3        30.41S
MIDDLESBORO    CLOUDY    39  29  66 SE6       30.44R
MONTICELLO     CLOUDY    44  34  68 S8        30.42R
$$



USA.gov is the U.S. government's official web portal to all federal, state and local government web resources and services.